Starlink 30539

operational
NORAD ID: 58004 Int'l Des: 2023-153 Owner: SPXS Country: US Constellation: starlink
LEOCIRCULAR

About Starlink 30539

Description loading...

Live Position

Loading 3D Globe...

Upcoming Passes

Altitude History

Altitude vs Time

uPlot chart will show altitude changes over time

Two-Line Element Set

1 58004U 23153P 25350.16706458 -.00000041 00000-0 12011-4 0 9998
2 58004 43.0025 162.4829 0001159 259.0094 101.0618 15.02533345122317
Epoch: Dec 16, 2025 • Age: 18 hours

Current Status

Altitude 558.3 km
Velocity 7.59 km/s
Sub-Earth Point 12.65°N, 95.42°W
Launch Date Oct 5, 2023
Age 2.1 years
Type internet

Technical Details

Classification Payload
Mass 730.00 kg
Dry Mass 700.00 kg
Total Mass 730.00 kg
Length 0.30 m
Diameter 4.10 m
Span 29.00 m
Shape Box + pan
Manufacturer SPXS
Bus Type Starlink V2M
Phase Status In Orbit
Owner/State SPXS/US

Large Constellations

Loading constellations...